| time (UTC) | temp F | wind direction | speed MPH | gust MPH | rain 1hr in | rain 24hr in | rain mn in | humidity % | barometer mb |
| 20260903131948 | 64 | 250 | 16.0 | 0.0 | 0.00 | 0.00 | 0.00 | 63 | |
| 20260903121747 | 64 | 240 | 14.0 | 0.0 | 0.00 | 0.00 | 0.00 | 67 | |
| 20260903111744 | 64 | 250 | 12.0 | 0.0 | 0.00 | 0.00 | 0.00 | 63 | |
| 20260903102146 | 63 | 250 | 12.0 | 0.0 | 0.00 | 0.00 | 0.00 | 72 | |
| 20260903091745 | 61 | 230 | 9.0 | 0.0 | 0.00 | 0.00 | 0.00 | 77 | |
| 20260903081744 | 59 | 250 | 9.0 | 0.0 | 0.00 | 0.00 | 0.00 | 82 | |
| 20260903071945 | 55 | 270 | 12.0 | 0.0 | 0.00 | 0.00 | 0.00 | 82 | |
| 20260903061744 | 55 | 270 | 9.0 | 0.0 | 0.00 | 0.00 | 0.00 | 87 | |
| 20260903051745 | 54 | 300 | 12.0 | 0.0 | 0.00 | 0.00 | 0.00 | 93 | |
| 20260903042146 | 54 | 320 | 16.0 | 0.0 | 0.00 | 0.00 | 0.00 | 93 | |
| 20260903031745 | 55 | 320 | 12.0 | 0.0 | 0.00 | 0.00 | 0.00 | 87 | |
| 20260903021744 | 55 | 310 | 14.0 | 0.0 | 0.00 | 0.00 | 0.00 | 87 | |
| 20260903011945 | 55 | 320 | 14.0 | 0.0 | 0.00 | 0.00 | 0.00 | 87 | |
| 20260903001746 | 57 | 320 | 16.0 | 0.0 | 0.00 | 0.00 | 0.00 | 82 | |
| 20260902231744 | 57 | 310 | 14.0 | 0.0 | 0.00 | 0.00 | 0.00 | 87 | |
| 20260902222146 | 57 | 330 | 12.0 | 0.0 | 0.00 | 0.00 | 0.00 | 87 | |
| 20260902211744 | 59 | 300 | 14.0 | 0.0 | 0.00 | 0.00 | 0.00 | 82 | |
| 20260902201746 | 61 | 270 | 14.0 | 0.0 | 0.00 | 0.00 | 0.00 | 77 | |
| 20260902191946 | 61 | 300 | 9.0 | 0.0 | 0.00 | 0.00 | 0.00 | 77 | |
| 20260902181745 | 61 | 20 | 7.0 | 0.0 | 0.00 | 0.00 | 0.00 | 82 | |
| 20260902171945 | 61 | 340 | 7.0 | 0.0 | 0.00 | 0.00 | 0.00 | 82 | |
| 20260902162147 | 63 | 20 | 9.0 | 0.0 | 0.00 | 0.00 | 0.00 | 77 | |
| 20260902151744 | 66 | 290 | 9.0 | 0.0 | 0.00 | 0.00 | 0.00 | 63 | |
| 20260902141945 | 68 | 300 | 2.0 | 0.0 | 0.00 | 0.00 | 0.00 | 60 |